Wind_Speed
35 36 38 37 37 36 35 34 34 31 28 26 23 20 17 15 16 17 17 19 21 23 22 22 22 22 23 22 20 19 19 20 21 21 20 18 17 16 15 14 13 12 11 10 9 8 7 6 5 4 3 2 2 2 3 4 5 6 7 7 8 8 8
37 37 39 39 39 38 36 35 36 33 30 27 25 23 19 17 16 17 17 19 21 23 23 23 23 22 22 22 21 19 19 21 22 22 21 19 18 17 16 15 14 13 12 11 9 8 7 6 5 4 3 2 1 0 1 2 3 4 5 6 7 7 8
40 40 40 40 40 40 38 37 37 35 31 29 27 24 21 19 17 17 18 19 20 23 24 25 24 24 24 23 22 20 20 22 23 23 22 20 19 18 17 16 15 14 13 12 11 10 8 7 6 5 4 4 3 2 2 3 3 4 4 5 6 7 8
43 42 41 41 41 41 40 38 38 37 33 30 28 26 24 22 20 19 20 20 21 23 24 25 25 25 25 24 23 22 22 22 24 24 23 22 21 19 18 17 16 16 15 14 13 11 10 10 8 7 6 6 5 5 4 4 5 5 5 6 6 7 7
46 44 43 42 41 42 42 40 39 38 35 31 30 29 27 24 22 21 21 21 21 22 23 25 27 27 27 26 26 25 24 23 24 25 24 23 22 21 19 18 17 17 17 16 15 14 13 12 11 10 9 8 8 7 7 7 7 7 7 7 7 8 8
49 46 45 44 43 42 42 41 40 38 35 32 32 30 28 25 23 22 22 21 20 21 23 26 28 28 29 29 29 28 27 26 26 26 26 25 24 22 21 19 19 19 18 18 17 16 15 14 13 12 11 11 11 10 10 10 9 9 9 9 10 10 10
50 49 47 46 45 44 43 42 40 38 36 34 33 31 29 27 25 24 22 22 22 22 23 24 26 27 28 29 30 30 30 29 29 28 27 26 25 23 22 21 20 20 20 19 18 18 17 16 15 15 14 14 13 13 13 13 12 12 12 12 12 12 12
49 51 50 47 45 44 44 43 42 40 38 36 35 33 31 29 27 25 24 23 23 23 23 23 25 26 28 29 29 30 31 31 31 30 29 28 27 26 25 24 22 22 21 21 20 19 19 19 18 17 17 16 16 16 16 15 15 15 14 14 15 15 15
48 53 53 49 46 44 44 45 44 41 39 38 36 34 32 30 29 27 26 25 24 24 23 23 24 25 27 29 30 30 30 30 31 31 31 30 29 28 27 26 25 24 23 23 22 21 21 21 20 20 19 18 18 18 18 18 18 17 17 17 17 17 17
47 52 55 52 49 45 45 46 44 41 40 39 38 36 34 32 30 29 28 26 25 24 23 22 22 23 25 27 29 30 32 32 32 31 31 31 30 29 28 28 27 26 25 25 24 24 23 23 22 21 21 20 20 21 21 21 21 20 19 19 19 19 20
49 52 55 55 54 49 47 47 46 43 42 41 39 38 36 34 32 31 29 27 25 25 24 22 22 22 22 23 25 28 31 33 33 32 31 30 30 29 29 29 29 28 27 27 27 26 26 26 25 23 22 22 23 23 24 24 23 23 22 21 21 21 22
57 55 55 57 58 55 50 50 49 46 44 43 41 39 38 36 34 32 31 29 27 26 25 24 22 21 21 22 23 26 28 30 32 32 30 29 28 28 29 29 29 29 29 29 29 29 28 28 27 26 25 25 25 25 25 26 25 25 23 22 22 23 23
62 57 56 59 61 58 54 52 51 48 45 44 43 41 39 37 36 34 32 31 30 28 27 25 24 22 21 22 23 25 26 27 28 28 27 25 25 26 27 28 28 28 28 29 29 29 29 29 28 27 26 26 25 25 26 26 26 25 24 24 23 24 25
62 55 52 55 58 56 53 51 50 48 46 44 43 41 40 39 38 36 34 33 32 31 29 28 26 24 23 22 23 24 25 26 25 25 24 23 23 23 24 25 24 24 25 26 27 28 28 27 27 26 26 25 25 25 25 25 25 25 25 24 24 24 25
65 57 51 52 55 55 53 51 50 48 46 44 42 41 41 41 40 38 36 36 35 33 32 30 28 27 26 24 22 22 23 24 24 24 24 23 23 23 23 22 21 21 21 22 23 24 24 25 25 25 25 24 24 24 25 24 24 24 24 24 24 24 25
68 64 57 54 55 57 55 53 52 49 46 44 43 42 42 41 41 39 38 37 35 33 32 30 29 28 27 25 23 21 21 22 23 24 24 23 23 23 23 22 21 20 20 20 20 21 22 23 24 24 24 24 24 24 24 24 23 23 23 24 24 25 26
71 68 62 58 57 59 59 57 55 52 49 47 46 45 44 42 41 39 38 37 35 33 32 31 30 30 28 26 24 23 22 22 22 22 23 23 22 21 21 22 22 21 21 21 20 21 21 22 23 24 24 24 24 25 24 24 23 23 23 24 25 25 26
74 71 67 63 60 61 62 61 58 55 53 52 50 48 46 44 42 40 38 37 36 34 33 32 31 31 29 27 26 25 25 24 23 23 23 24 23 22 21 21 21 22 22 22 21 21 21 22 23 23 24 24 25 25 24 24 23 24 24 25 25 25 26
76 74 71 68 64 61 62 63 61 58 57 55 53 50 46 43 43 43 41 40 40 38 36 35 34 33 31 30 31 30 28 27 27 26 25 25 25 25 24 24 23 22 22 21 21 21 22 22 22 23 23 24 24 24 24 24 24 25 25 25 26 26 27
79 77 74 70 65 61 62 64 63 61 59 58 55 53 48 43 43 46 46 45 44 42 41 40 39 38 37 36 35 33 30 29 28 28 27 26 26 27 27 27 26 24 22 20 20 21 21 21 22 22 23 23 23 24 24 24 24 25 25 26 27 27 28
83 80 77 73 65 58 58 61 64 63 61 60 58 56 51 46 45 50 52 49 47 46 45 44 43 42 40 39 37 34 32 31 31 30 29 28 27 27 27 28 28 26 23 21 20 19 19 19 20 21 21 22 22 23 23 24 24 24 25 26 26 27 28
86 84 82 79 72 63 57 57 61 63 61 62 62 61 57 52 49 53 54 51 48 47 47 46 45 43 42 41 39 36 34 34 33 33 33 32 31 29 28 28 28 27 25 23 21 20 20 20 20 20 20 21 21 22 23 23 23 24 24 25 26 27 27
90 89 86 85 81 74 65 60 60 61 61 62 63 63 62 59 55 54 54 53 50 48 48 47 46 45 44 43 41 39 38 38 37 35 35 35 34 33 31 29 28 26 25 23 22 22 22 22 22 22 21 21 21 22 23 22 22 23 23 24 25 26 27
93 93 91 89 86 82 75 67 64 65 66 66 65 63 64 63 60 58 56 55 53 51 49 49 49 48 46 44 43 42 41 41 39 37 36 36 35 34 33 31 29 27 25 23 22 22 23 24 24 24 24 24 23 23 23 23 23 23 23 23 24 26 27
95 95 94 92 90 89 85 77 70 67 69 69 65 65 68 66 63 63 60 58 57 56 54 53 51 48 47 47 46 44 43 43 41 38 37 36 35 34 33 30 29 29 28 26 24 23 23 24 26 26 27 27 26 25 25 25 24 24 24 24 24 26 27
96 97 97 95 93 92 90 86 78 72 71 69 65 67 72 70 65 64 63 62 61 59 58 57 53 50 49 49 47 45 44 44 43 41 39 37 36 35 33 30 29 30 31 29 26 25 25 25 27 28 29 29 29 28 27 26 26 25 25 25 25 26 27
97 99 99 98 96 94 92 90 86 80 76 74 69 68 71 71 68 65 63 62 62 62 61 60 58 55 53 50 48 46 46 45 45 43 41 39 37 37 36 34 31 30 30 30 28 27 27 27 28 29 30 31 31 30 28 28 27 27 27 27 27 27 27
99 100 101 99 98 97 95 93 91 87 83 80 77 73 70 69 68 66 63 60 59 62 64 63 62 60 57 53 49 48 47 47 46 45 43 42 41 40 41 39 33 28 28 28 28 28 29 29 30 31 32 32 32 31 31 30 30 30 29 29 28 28 28
101 101 102 102 100 100 99 96 95 93 89 85 83 79 74 71 71 70 68 64 61 60 60 60 59 57 55 54 51 49 49 49 48 47 45 44 43 42 42 40 34 28 27 28 28 29 31 31 33 34 34 33 33 33 33 33 33 33 32 30 29 28 28
104 103 103 104 104 103 103 101 99 97 94 91 87 83 78 75 74 73 73 73 71 66 63 60 56 53 52 53 53 51 50 50 50 49 48 47 45 42 40 39 36 32 30 31 32 32 33 34 35 36 36 35 34 34 35 35 35 35 35 33 31 29 28
107 105 103 105 106 107 107 106 103 101 98 95 92 88 83 79 77 76 76 77 77 73 69 65 60 56 54 54 53 53 52 52 52 51 50 49 47 44 42 42 41 39 38 38 38 38 37 37 37 37 37 37 37 37 37 36 36 37 37 35 33 30 29
110 107 105 105 108 110 110 109 107 105 102 99 96 93 90 85 82 81 81 81 80 77 73 68 64 61 58 56 55 54 54 53 52 53 53 51 49 47 46 44 44 44 44 43 43 43 42 41 39 39 39 40 41 40 39 37 38 39 39 37 34 32 30
113 111 108 108 109 111 112 112 111 109 106 103 100 97 95 92 88 86 85 84 84 82 76 70 66 62 59 57 56 56 56 55 54 54 54 52 51 49 48 47 46 46 46 46 46 46 44 43 42 41 42 43 44 42 40 40 40 41 41 38 35 33 32
117 114 112 111 111 112 113 114 114 112 109 106 103 100 98 96 93 92 89 87 86 85 80 73 68 64 60 58 57 58 59 58 58 57 56 54 53 52 51 50 49 49 48 48 47 45 44 45 45 44 45 46 46 45 43 43 44 45 43 39 36 34 34
121 118 115 114 113 113 114 115 115 113 110 108 106 103 102 100 98 96 93 89 87 86 82 77 73 70 67 64 62 62 62 62 63 62 60 58 57 56 55 54 52 52 51 50 48 46 45 45 46 47 49 49 48 47 46 47 48 48 45 41 38 37 35
123 121 119 117 116 115 114 115 116 114 111 110 108 106 105 103 102 101 97 93 90 88 85 82 79 77 75 72 69 68 67 66 66 66 64 62 61 60 59 58 56 55 54 51 49 48 46 46 48 51 52 52 50 49 50 52 51 50 47 45 42 39 37
124 123 122 120 118 117 116 115 115 114 112 111 110 109 107 106 105 104 102 99 96 94 91 89 86 83 81 78 75 73 71 69 68 67 66 65 64 62 62 61 60 59 57 53 51 49 48 50 54 55 55 54 53 53 55 55 54 52 51 48 45 42 38
125 125 124 122 120 119 117 116 114 113 113 112 112 110 109 108 106 105 103 102 101 98 96 93 90 86 84 81 77 75 74 71 69 68 67 66 65 63 63 63 62 60 57 54 52 52 53 56 57 57 56 56 55 55 57 58 57 56 54 52 49 44 41
Wind_Direction
217 215 209 205 203 204 209 214 216 214 212 213 210 210 214 211 206 205 206 204 202 199 199 199 195 191 189 189 193 199 202 203 200 197 197 195 193 191 188 183 180 180 180 177 172 166 161 157 151 146 134 117 86 60 47 40 35 32 31 30 29 27 27
215 216 211 207 205 205 208 211 214 214 212 211 209 207 210 209 206 207 207 206 205 202 199 199 199 197 195 195 197 201 204 205 204 201 201 200 198 197 195 192 190 190 190 189 185 181 180 179 177 177 176 182 203 294 0 6 12 16 19 21 22 22 21
212 214 211 209 208 207 207 211 213 213 212 209 208 207 206 207 204 202 206 208 208 206 202 199 199 198 198 199 200 204 206 206 206 205 205 205 205 204 203 201 200 200 201 201 198 195 197 199 199 203 208 218 234 252 283 308 325 339 352 1 7 11 12
213 212 211 210 211 210 209 212 214 213 210 207 207 207 205 205 201 198 203 207 208 208 206 203 200 199 200 200 201 204 207 208 209 209 209 210 211 212 211 210 209 208 210 211 210 208 209 213 215 219 225 234 247 258 270 284 298 312 324 336 346 352 356
214 212 210 210 212 212 212 215 217 213 208 204 206 207 206 204 201 197 200 206 209 208 208 206 204 202 201 200 201 203 205 207 210 212 213 215 217 218 219 218 215 215 217 219 220 219 220 223 226 230 236 244 253 263 271 280 289 299 309 318 326 334 340
214 212 210 210 212 214 215 219 219 213 206 204 206 207 206 205 203 200 200 204 208 209 208 207 208 208 205 202 200 202 204 205 208 212 215 218 220 221 222 223 221 221 222 224 227 228 230 232 235 238 243 250 258 265 272 279 286 295 303 310 315 321 327
213 213 210 209 212 214 217 220 217 211 206 206 206 206 205 205 206 203 201 201 204 209 209 209 211 213 214 211 206 204 204 204 206 210 214 218 221 222 223 224 225 226 227 229 232 235 238 241 244 246 249 254 260 267 273 279 286 293 300 305 310 315 318
212 214 211 208 211 214 217 219 215 208 207 208 207 206 204 205 208 206 203 202 203 206 208 209 211 214 217 219 218 215 211 208 207 208 212 216 219 222 224 225 227 230 232 236 238 241 245 248 251 254 256 260 265 270 275 280 286 292 297 302 306 310 313
212 215 213 209 211 214 215 217 213 208 208 209 208 207 205 206 208 207 206 205 203 204 205 206 208 212 215 218 221 223 222 217 213 211 212 215 218 222 225 227 230 234 237 240 244 247 251 254 256 260 263 266 270 273 277 281 286 292 296 300 304 307 309
214 214 215 211 211 214 213 212 210 208 209 211 208 207 206 207 209 209 208 207 205 205 206 207 207 209 213 217 219 222 225 225 222 219 218 219 221 224 227 230 234 238 241 245 248 251 254 257 260 264 267 271 274 276 279 283 287 292 296 299 302 303 306
221 215 215 213 213 213 211 209 209 209 209 211 210 207 207 208 209 210 210 208 207 207 208 208 207 207 209 215 219 222 225 227 227 226 225 224 225 227 230 233 236 240 244 248 251 254 257 260 263 266 270 273 275 277 280 283 287 291 295 298 300 300 302
224 217 213 213 214 213 211 210 210 209 209 211 211 209 209 209 211 212 211 210 209 209 209 210 208 207 206 208 215 221 225 228 230 230 229 228 228 231 233 236 239 242 245 249 252 256 258 261 265 268 271 273 274 276 279 282 285 289 293 296 297 297 299
225 218 211 212 213 212 211 211 210 210 209 210 211 211 211 211 211 213 213 212 211 210 211 212 211 209 207 206 209 215 221 228 232 233 233 231 230 231 234 237 240 242 246 249 252 255 258 262 265 268 271 272 273 275 277 280 283 287 291 293 294 295 297
227 223 215 213 214 213 213 214 213 213 212 211 212 212 213 213 213 214 214 213 213 213 212 214 215 214 213 210 210 211 215 221 228 232 234 233 229 230 232 235 239 242 246 249 251 255 258 261 264 266 268 270 271 273 275 278 282 286 289 292 293 295 296
225 226 220 215 214 214 215 216 216 216 216 215 215 216 216 217 216 216 216 215 214 214 213 215 217 218 217 216 215 215 216 219 222 227 229 229 226 225 226 230 235 240 244 248 252 256 258 260 263 265 266 269 271 273 276 279 282 286 289 291 293 295 297
219 225 222 216 213 213 213 215 216 216 217 218 219 220 219 220 220 219 218 217 217 216 215 216 219 219 219 221 222 222 223 223 223 225 228 229 228 225 223 225 229 234 239 244 249 254 257 260 263 265 268 271 273 276 278 281 285 287 290 293 294 296 299
216 222 223 218 214 212 212 213 214 214 215 216 218 219 219 220 222 222 221 221 221 221 219 218 221 221 221 224 226 227 228 228 229 230 232 236 237 236 232 229 228 230 235 240 244 247 252 256 260 264 268 271 274 276 279 282 285 287 288 291 293 295 297
214 218 222 221 216 212 211 212 213 212 213 214 214 216 218 220 222 222 222 224 224 223 221 221 222 222 222 224 227 229 230 231 231 232 235 240 244 247 248 243 237 233 234 238 242 245 249 253 257 262 266 270 274 278 282 284 285 286 286 288 290 291 293
212 214 219 221 219 215 211 210 212 213 213 214 213 213 214 219 224 224 221 221 223 223 223 223 224 224 223 223 225 226 226 227 228 228 230 234 240 245 250 251 249 244 240 240 242 245 250 254 259 264 268 273 278 283 287 290 290 291 292 292 293 293 294
211 212 214 218 220 220 215 211 211 212 213 214 213 211 209 212 223 228 225 222 222 221 222 224 225 225 224 224 226 227 227 228 230 230 229 230 232 237 244 250 255 256 252 249 248 248 252 258 263 267 272 277 283 288 292 295 296 297 298 299 299 299 299
209 210 211 213 215 218 218 214 212 212 213 214 214 212 209 207 213 223 226 224 221 220 221 224 225 226 226 227 230 231 231 233 235 235 235 236 237 237 240 245 253 258 259 259 259 259 261 263 266 270 274 279 285 289 292 296 299 300 302 303 304 303 304
208 210 210 210 210 211 214 214 213 211 212 214 214 212 211 211 213 217 221 224 222 220 221 223 225 226 228 229 231 231 231 233 236 237 239 242 245 246 244 243 247 254 258 260 263 265 267 269 270 273 276 278 282 285 290 295 298 301 303 304 305 304 305
207 209 210 209 208 209 209 209 209 209 209 213 214 212 212 215 218 218 219 222 222 222 223 224 224 226 228 231 232 231 230 230 233 236 238 241 246 251 252 248 245 248 253 256 261 265 268 271 274 275 276 277 279 283 288 292 295 298 302 303 304 304 305
207 208 210 210 208 207 208 207 206 206 208 211 213 212 214 218 221 220 218 219 221 222 224 226 225 225 227 230 232 232 231 231 232 235 237 239 243 249 255 253 247 247 250 253 257 261 264 269 273 275 277 279 281 284 287 290 293 296 299 302 303 303 304
207 208 210 212 210 208 208 209 208 207 209 211 211 212 214 217 221 221 218 217 221 223 225 228 228 225 225 228 231 232 233 233 234 236 239 242 243 245 249 250 249 250 252 253 255 258 261 265 269 273 276 279 282 285 287 289 292 294 297 299 301 301 303
208 208 209 212 213 211 209 210 210 209 210 211 210 211 214 216 219 220 218 217 221 224 227 229 230 228 226 227 229 232 234 234 234 236 239 243 244 244 247 250 252 251 252 254 258 259 259 262 265 269 273 277 280 284 286 288 290 291 294 295 296 299 302
210 208 208 210 214 214 211 210 210 211 212 211 209 211 215 216 217 219 220 219 221 225 227 228 228 229 227 226 228 231 234 234 234 235 237 239 241 243 247 253 256 253 250 253 258 259 260 262 264 267 270 274 278 282 284 286 287 288 289 291 293 296 299
211 209 208 209 213 215 214 211 210 211 213 213 211 210 213 215 216 219 221 221 222 225 227 227 226 227 226 225 226 230 234 236 236 236 236 238 240 243 247 253 255 251 246 249 255 258 261 264 265 267 270 273 276 280 282 283 285 286 287 289 291 293 296
212 211 209 208 210 214 216 214 211 210 212 214 213 212 214 215 217 220 220 219 219 222 225 224 224 224 223 222 224 227 231 235 237 238 237 238 240 244 247 250 249 245 244 250 256 261 263 264 266 269 271 273 276 278 280 281 283 285 286 287 289 292 295
213 212 210 208 209 212 215 215 214 211 211 213 214 214 213 215 217 220 220 219 219 221 223 223 222 222 222 222 225 228 230 234 237 239 239 240 241 244 245 245 243 243 251 259 262 263 263 263 266 270 271 273 276 277 278 280 282 284 286 287 289 291 294
213 213 212 210 210 212 214 215 215 213 211 212 213 214 213 214 217 219 220 220 219 221 224 225 224 225 224 223 226 229 232 235 237 239 240 242 243 244 244 243 241 244 253 260 263 263 262 263 267 269 269 272 275 276 276 279 282 284 285 287 289 291 293
213 212 212 212 211 212 213 214 215 214 212 211 212 213 213 214 216 219 220 219 218 219 223 225 227 228 226 225 226 228 231 235 237 238 240 242 243 245 246 245 243 246 252 257 259 260 262 263 265 267 268 271 274 275 276 279 282 284 284 286 289 292 292
214 212 212 213 212 213 214 214 215 215 213 211 212 213 213 214 216 219 220 219 217 218 221 224 226 225 224 224 226 227 229 232 236 237 239 241 244 246 247 247 247 248 252 255 256 258 262 265 267 269 270 272 274 274 275 279 282 282 282 285 289 291 290
215 212 212 213 213 213 214 215 215 215 213 212 211 213 213 214 215 218 220 219 218 218 221 223 223 222 223 225 228 229 230 232 235 237 239 241 244 246 246 247 247 248 251 254 256 259 265 269 270 270 271 272 273 274 275 279 281 281 282 286 288 287 286
215 214 212 212 213 214 215 215 216 216 215 213 212 212 214 214 215 216 218 219 218 219 221 222 223 225 227 229 231 232 233 235 236 238 239 240 242 243 245 246 247 248 251 255 258 263 268 270 270 271 272 274 275 275 275 278 280 282 284 285 284 283 284
215 215 213 212 213 214 215 216 217 217 216 215 214 213 214 215 215 216 218 219 220 220 222 224 226 228 230 233 234 234 235 236 238 239 240 241 241 242 244 245 247 250 253 257 262 266 269 270 272 274 275 275 275 276 276 278 281 283 283 281 280 281 282
214 215 214 213 213 214 215 216 217 217 217 217 216 214 214 215 216 217 218 220 222 223 224 226 228 230 232 234 234 234 235 237 238 239 241 242 243 243 244 246 248 252 256 260 264 266 268 270 273 275 275 274 275 276 277 279 280 280 280 279 280 280 279
213 215 215 214 214 214 215 216 217 217 218 218 218 216 215 216 217 218 219 221 223 225 226 228 229 230 232 233 233 234 235 236 237 239 241 243 245 246 247 248 250 253 256 260 262 264 265 268 271 273 273 273 274 275 276 276 277 278 279 278 278 278 277
Height
10962 10965 10968 10971 10974 10977 10980 10983 10986 10988 10990 10993 10994 10996 10998 11000 11001 11001 11001 11002 11003 11004 11006 11008 11010 11012 11014 11016 11017 11019 11020 11021 11022 11024 11025 11026 11026 11027 11028 11029 11029 11029 11030 11030 11031 11031 11032 11032 11033 11033 11033 11034 11034 11034 11034 11034 11033 11033 11033 11032 11032 11032 11031
10959 10962 10965 10968 10971 10974 10977 10980 10982 10985 10988 10990 10992 10994 10997 10999 11000 11000 11000 11001 11002 11003 11005 11007 11010 11012 11014 11015 11016 11018 11019 11020 11022 11023 11024 11025 11026 11027 11027 11028 11029 11029 11030 11030 11031 11031 11032 11032 11032 11033 11033 11033 11033 11033 11033 11033 11033 11033 11033 11032 11032 11032 11031
10956 10959 10962 10966 10969 10972 10975 10977 10979 10982 10985 10988 10990 10993 10995 10997 10998 10998 10998 10999 11000 11002 11003 11005 11008 11010 11012 11014 11015 11017 11018 11019 11021 11022 11024 11025 11026 11026 11027 11027 11028 11029 11029 11030 11030 11031 11031 11031 11032 11032 11032 11032 11033 11033 11033 11033 11033 11032 11032 11032 11032 11031 11031
10952 10956 10960 10964 10967 10970 10972 10974 10977 10979 10982 10986 10989 10991 10993 10994 10995 10996 10996 10997 10998 11000 11001 11003 11006 11008 11010 11012 11014 11015 11017 11018 11020 11021 11023 11024 11025 11025 11026 11027 11027 11028 11028 11029 11029 11030 11031 11031 11031 11032 11032 11032 11032 11032 11032 11032 11032 11032 11032 11031 11031 11031 11031
10948 10953 10957 10960 10963 10967 10970 10972 10974 10977 10980 10983 10986 10988 10990 10992 10993 10994 10994 10995 10997 10998 11000 11002 11004 11006 11008 11010 11012 11013 11015 11017 11019 11020 11022 11023 11024 11025 11025 11026 11027 11027 11027 11028 11028 11029 11030 11030 11031 11031 11031 11031 11031 11031 11031 11031 11031 11031 11031 11031 11031 11031 11031
10945 10950 10953 10957 10960 10963 10967 10970 10973 10976 10978 10981 10983 10986 10988 10990 10991 10992 10993 10994 10995 10997 10999 11000 11001 11003 11005 11007 11009 11010 11012 11014 11016 11018 11019 11021 11022 11024 11025 11025 11026 11026 11026 11027 11027 11028 11029 11029 11030 11030 11030 11030 11030 11030 11030 11030 11030 11030 11031 11031 11031 11031 11031
10942 10946 10949 10953 10957 10960 10964 10967 10971 10973 10976 10978 10981 10984 10986 10988 10989 10990 10991 10993 10994 10995 10996 10998 11000 11001 11003 11005 11006 11007 11009 11010 11013 11015 11017 11019 11021 11022 11023 11024 11025 11025 11026 11026 11026 11027 11027 11028 11028 11029 11029 11029 11029 11029 11029 11029 11029 11030 11030 11030 11030 11030 11030
10939 10942 10945 10950 10954 10958 10961 10964 10968 10970 10973 10976 10978 10981 10983 10985 10987 10988 10990 10991 10992 10993 10994 10996 10998 11000 11002 11005 11006 11007 11007 11008 11010 11012 11014 11016 11018 11020 11021 11022 11023 11024 11025 11025 11025 11026 11026 11027 11027 11028 11028 11028 11028 11028 11028 11028 11029 11029 11029 11029 11029 11029 11029
10937 10938 10942 10947 10951 10955 10958 10961 10964 10968 10970 10973 10976 10978 10981 10983 10984 10986 10987 10989 10990 10991 10993 10994 10996 10998 11000 11003 11005 11006 11007 11008 11008 11009 11010 11012 11014 11016 11018 11020 11022 11022 11023 11024 11024 11025 11025 11025 11026 11026 11027 11027 11027 11027 11027 11027 11028 11028 11028 11028 11028 11028 11028
10933 10935 10939 10944 10948 10951 10955 10957 10961 10964 10966 10969 10973 10975 10977 10979 10982 10984 10985 10987 10989 10990 10992 10993 10995 10997 10999 11000 11002 11005 11006 11007 11007 11007 11008 11009 11011 11014 11016 11018 11019 11021 11022 11023 11023 11023 11023 11024 11024 11025 11026 11026 11026 11026 11026 11026 11027 11027 11028 11028 11028 11027 11027
10928 10931 10935 10939 10943 10947 10950 10953 10956 10959 10962 10966 10969 10972 10974 10977 10979 10981 10983 10986 10988 10989 10990 10992 10993 10995 10997 11000 11001 11003 11003 11004 11005 11005 11006 11008 11009 11011 11013 11015 11017 11018 11020 11021 11021 11022 11022 11022 11023 11024 11025 11025 11025 11025 11025 11025 11025 11026 11027 11027 11027 11026 11026
10918 10922 10928 10932 10935 10940 10945 10948 10951 10954 10958 10962 10965 10968 10971 10973 10976 10979 10981 10984 10985 10987 10988 10990 10992 10994 10996 10998 10999 11001 11002 11002 11003 11004 11005 11007 11008 11009 11010 11012 11013 11015 11017 11019 11019 11020 11020 11020 11021 11022 11023 11023 11023 11023 11023 11023 11024 11024 11025 11026 11025 11025 11024
10909 10913 10920 10925 10928 10934 10940 10943 10947 10951 10955 10958 10961 10964 10967 10970 10972 10975 10978 10981 10982 10984 10986 10988 10990 10992 10994 10996 10997 10998 11000 11001 11002 11003 11005 11006 11007 11007 11008 11009 11010 11012 11014 11016 11017 11017 11018 11018 11019 11020 11020 11021 11021 11021 11021 11021 11022 11022 11023 11024 11024 11023 11022
10907 10913 10921 10926 10930 10936 10941 10944 10947 10950 10953 10956 10958 10961 10964 10966 10969 10972 10975 10977 10979 10981 10983 10985 10987 10989 10991 10993 10995 10996 10998 10999 11000 11002 11004 11005 11006 11006 11006 11006 11008 11009 11011 11013 11014 11015 11016 11016 11017 11018 11018 11018 11019 11019 11019 11019 11020 11021 11021 11021 11021 11021 11021
10907 10912 10919 10926 10930 10935 10939 10942 10946 10949 10953 10956 10958 10960 10962 10964 10966 10969 10972 10974 10976 10978 10980 10982 10984 10986 10988 10990 10993 10995 10996 10997 10999 11000 11002 11003 11004 11004 11004 11004 11005 11007 11008 11010 11012 11013 11014 11014 11015 11015 11016 11016 11016 11016 11017 11018 11018 11019 11019 11019 11019 11019 11019
10904 10907 10912 10919 10925 10929 10933 10937 10941 10945 10949 10954 10957 10959 10962 10963 10965 10967 10969 10971 10973 10975 10977 10979 10981 10983 10985 10988 10990 10993 10994 10996 10997 10998 11000 11001 11002 11003 11003 11003 11003 11004 11005 11007 11009 11011 11012 11013 11013 11013 11013 11014 11014 11014 11015 11016 11017 11017 11017 11017 11017 11017 11016
10900 10902 10906 10912 10918 10923 10927 10931 10935 10940 10944 10948 10952 10955 10959 10961 10963 10966 10968 10970 10972 10974 10975 10976 10977 10979 10982 10985 10988 10990 10992 10994 10995 10997 10999 11000 11001 11002 11003 11003 11002 11002 11003 11004 11006 11008 11010 11011 11011 11011 11011 11012 11012 11012 11013 11014 11015 11015 11015 11015 11015 11015 11014
10894 10899 10902 10906 10910 10915 10920 10925 10930 10935 10939 10942 10946 10949 10953 10957 10960 10963 10966 10968 10970 10971 10973 10973 10974 10976 10979 10982 10984 10986 10988 10991 10993 10995 10997 10998 11000 11001 11002 11002 11002 11001 11001 11002 11003 11005 11007 11008 11009 11009 11009 11009 11010 11010 11011 11011 11012 11013 11013 11013 11013 11013 11012
10885 10892 10896 10900 10905 10910 10914 10919 10925 10930 10934 10937 10940 10942 10946 10952 10957 10959 10961 10963 10965 10968 10970 10970 10971 10972 10974 10976 10977 10979 10982 10985 10987 10989 10992 10994 10996 10998 10999 11000 11000 11000 11000 11000 11001 11003 11004 11006 11007 11007 11008 11008 11008 11008 11008 11009 11009 11010 11010 11010 11010 11010 11010
10875 10883 10889 10894 10900 10906 10910 10915 10919 10924 10929 10931 10934 10937 10940 10946 10954 10957 10956 10957 10959 10962 10964 10965 10966 10967 10968 10970 10971 10974 10977 10979 10981 10984 10986 10989 10991 10993 10994 10995 10997 10998 10999 10999 11000 11001 11002 11003 11005 11006 11006 11006 11006 11006 11006 11006 11006 11007 11007 11007 11007 11007 11007
10868 10872 10879 10885 10892 10899 10904 10909 10913 10919 10923 10924 10928 10934 10937 10938 10943 10947 10949 10951 10953 10955 10957 10959 10960 10962 10964 10965 10967 10971 10975 10976 10978 10980 10982 10984 10986 10988 10990 10991 10993 10995 10996 10997 10998 10999 11000 11002 11003 11004 11005 11005 11005 11004 11004 11004 11004 11004 11004 11004 11004 11004 11004
10860 10863 10868 10874 10882 10888 10894 10900 10905 10911 10916 10916 10919 10927 10932 10932 10931 10935 10941 10945 10947 10949 10950 10952 10955 10958 10960 10961 10963 10967 10971 10973 10975 10977 10979 10981 10983 10985 10986 10988 10990 10992 10993 10994 10995 10996 10997 10999 11000 11002 11003 11003 11003 11003 11002 11002 11002 11001 11001 11001 11001 11001 11000
10850 10855 10858 10863 10871 10877 10883 10889 10895 10900 10905 10907 10912 10920 10926 10926 10925 10928 10934 10938 10941 10944 10945 10947 10949 10952 10954 10957 10960 10963 10966 10968 10970 10973 10975 10977 10979 10981 10983 10985 10987 10989 10990 10991 10992 10993 10994 10996 10997 10998 11000 11001 11001 11000 11000 11000 11000 10999 10999 10998 10998 10997 10996
10842 10848 10851 10855 10861 10867 10873 10880 10885 10891 10896 10899 10906 10915 10919 10919 10919 10922 10928 10931 10934 10938 10940 10941 10942 10945 10949 10952 10955 10959 10962 10964 10966 10969 10971 10973 10975 10978 10980 10983 10986 10987 10988 10988 10989 10991 10992 10992 10993 10994 10995 10997 10997 10998 10997 10997 10997 10997 10996 10995 10995 10993 10992
10833 10840 10846 10850 10853 10859 10865 10871 10878 10884 10888 10893 10900 10906 10909 10910 10911 10915 10921 10926 10928 10930 10933 10934 10936 10940 10944 10947 10951 10955 10959 10961 10963 10965 10967 10969 10972 10974 10976 10980 10983 10984 10985 10985 10986 10987 10989 10989 10990 10990 10991 10992 10993 10994 10994 10994 10994 10993 10993 10992 10992 10990 10989
10823 10831 10837 10842 10845 10850 10857 10863 10870 10876 10881 10887 10893 10897 10900 10902 10904 10908 10913 10918 10921 10923 10925 10927 10931 10935 10939 10943 10947 10951 10954 10957 10959 10961 10963 10966 10969 10971 10973 10976 10978 10980 10981 10982 10983 10984 10985 10985 10986 10986 10987 10987 10989 10990 10991 10991 10991 10990 10989 10989 10988 10987 10986
10814 10821 10828 10833 10837 10843 10849 10855 10862 10868 10872 10879 10885 10889 10893 10896 10899 10901 10906 10910 10913 10916 10918 10922 10926 10929 10934 10939 10944 10947 10949 10952 10955 10957 10959 10962 10965 10968 10970 10972 10974 10975 10977 10978 10979 10980 10981 10981 10982 10982 10983 10983 10984 10985 10986 10987 10987 10987 10986 10985 10984 10983 10983
10802 10809 10817 10824 10830 10835 10841 10846 10853 10860 10865 10871 10877 10882 10886 10890 10893 10896 10899 10902 10906 10908 10911 10916 10920 10924 10930 10935 10939 10941 10944 10946 10950 10952 10955 10959 10962 10964 10966 10968 10970 10971 10973 10974 10975 10975 10976 10977 10978 10978 10979 10979 10980 10980 10981 10982 10983 10983 10983 10982 10980 10980 10979
10789 10797 10806 10814 10821 10826 10831 10837 10844 10850 10856 10862 10868 10874 10879 10883 10886 10890 10893 10895 10898 10901 10905 10910 10916 10921 10926 10930 10933 10935 10938 10941 10944 10947 10951 10954 10957 10960 10962 10964 10966 10967 10968 10969 10970 10971 10971 10972 10973 10974 10975 10975 10976 10976 10976 10977 10978 10978 10978 10978 10978 10977 10976
10779 10787 10795 10803 10810 10814 10819 10826 10833 10840 10847 10854 10860 10866 10872 10876 10879 10883 10886 10887 10890 10895 10900 10905 10911 10917 10921 10924 10927 10929 10932 10935 10938 10941 10945 10949 10952 10955 10958 10960 10961 10962 10963 10964 10965 10966 10966 10967 10968 10969 10970 10971 10972 10972 10972 10972 10973 10973 10973 10974 10975 10975 10974
10769 10777 10784 10792 10797 10801 10806 10813 10820 10829 10838 10845 10851 10857 10863 10867 10871 10875 10877 10878 10883 10890 10895 10900 10906 10912 10915 10918 10921 10924 10927 10930 10933 10936 10939 10943 10946 10949 10952 10954 10956 10958 10959 10960 10961 10961 10961 10962 10964 10965 10966 10967 10967 10967 10968 10969 10969 10969 10969 10970 10970 10971 10971
10758 10767 10774 10781 10786 10791 10795 10801 10808 10817 10827 10836 10842 10848 10854 10859 10863 10866 10867 10870 10876 10883 10888 10894 10901 10906 10910 10913 10916 10919 10923 10926 10929 10931 10934 10937 10940 10943 10945 10948 10951 10953 10954 10956 10956 10956 10956 10957 10959 10960 10961 10962 10962 10963 10964 10965 10966 10965 10965 10966 10966 10966 10966
10743 10754 10763 10769 10775 10781 10786 10792 10798 10806 10815 10825 10832 10838 10845 10851 10854 10856 10858 10864 10870 10876 10882 10889 10895 10900 10904 10908 10911 10915 10919 10922 10924 10927 10929 10932 10935 10937 10940 10943 10946 10947 10949 10950 10950 10950 10951 10952 10954 10955 10957 10957 10958 10959 10960 10960 10961 10960 10961 10962 10963 10962 10961
10728 10740 10750 10757 10764 10770 10777 10783 10789 10795 10804 10814 10822 10829 10835 10841 10845 10847 10850 10856 10863 10869 10876 10883 10888 10892 10896 10901 10905 10910 10914 10916 10919 10922 10925 10929 10931 10933 10936 10938 10940 10942 10944 10944 10945 10946 10947 10948 10949 10950 10951 10952 10953 10955 10956 10955 10955 10954 10956 10959 10959 10958 10956
10714 10726 10737 10745 10752 10760 10767 10773 10779 10787 10796 10804 10812 10819 10826 10831 10835 10838 10842 10849 10856 10864 10870 10875 10880 10885 10889 10893 10899 10904 10908 10911 10913 10916 10921 10924 10927 10930 10932 10934 10936 10937 10938 10939 10940 10942 10943 10944 10945 10945 10946 10947 10949 10950 10950 10950 10949 10949 10952 10954 10954 10953 10952
10702 10712 10723 10732 10740 10748 10755 10762 10770 10778 10787 10795 10802 10809 10816 10821 10826 10831 10836 10842 10849 10857 10862 10866 10872 10877 10882 10886 10893 10897 10901 10905 10908 10911 10915 10919 10922 10926 10928 10929 10931 10932 10933 10935 10937 10939 10940 10941 10940 10940 10941 10942 10944 10944 10944 10944 10944 10945 10946 10947 10947 10947 10947
10691 10700 10710 10720 10729 10736 10744 10752 10760 10769 10778 10785 10792 10799 10806 10812 10817 10824 10831 10836 10842 10848 10854 10859 10865 10871 10875 10880 10886 10891 10895 10899 10903 10906 10910 10913 10917 10920 10923 10924 10925 10927 10929 10931 10934 10935 10936 10936 10935 10936 10937 10937 10938 10938 10938 10937 10937 10938 10939 10939 10941 10941 10941
10681 10689 10698 10708 10717 10726 10734 10741 10750 10759 10767 10774 10781 10790 10798 10805 10811 10818 10825 10830 10835 10841 10847 10853 10859 10864 10868 10873 10880 10885 10889 10894 10898 10901 10905 10908 10912 10915 10917 10918 10920 10923 10925 10927 10929 10929 10930 10930 10930 10930 10931 10931 10932 10932 10931 10930 10930 10931 10932 10933 10934 10935 10934